Regional Weather Roundup
Issued by NWS

Home | Current Version | Previous Version | Graphics & Text | Print | Product List | Glossary On
Versions: 1 2 3 4 5 6 7 8 9 10 11 12 13 14 15 16 17 18 19 20 21 22 23 24 25 26 27 28 29 30 31 32 33 34 35 36 37 38 39 40 41 42 43 44 45 46 47 48 49 50
799
ASUS43 KIND 290000
RWRIN

WEATHER ROUNDUP FOR INDIANA
NATIONAL WEATHER SERVICE INDIANAPOLIS IN
800 PM EDT SUN MAY 28 2017

NOTE: "FAIR" INDICATES FEW OR NO CLOUDS BELOW 12,000 FEET WITH NO
SIGNIFICANT WEATHER AND/OR OBSTRUCTIONS TO VISIBILITY.

* - STATION DOES NOT REPORT WEATHER SUCH AS PRECIPITATION OR FOG.

+ - STATION NOT QUALITY CONTROLLED BY THE NATIONAL WEATHER SERVICE.
    USE DATA WITH CAUTION...ESPECIALLY DEWPOINT AND RELATIVE
    HUMIDITY OBSERVATIONS.

INZ001>003-010>013-019-020-290100-
NORTHWEST INDIANA

CITY           SKY/WX    TMP DP  RH WIND       PRES   REMARKS
GARY /AIRPORT/ MOSUNNY   72  57  60 CALM      29.75S
KNOX *+        SUNNY     72  45  37 NW12      29.75R
MICHIGAN CITY+ SUNNY     64  57  77 CALM      29.75S
MONTICELLO +   SUNNY     74  55  51 NW15G21   29.75R
6HR MIN TEMP:  72; 6HR MAX TEMP:  81; 6HR PCP:  0.01;

RENSSELAER +   SUNNY     75  43  31 W9        29.76R

$$

LMZ046-743>745-290100-
SOUTHERN LAKE MICHIGAN

STATION/POSITION TIME  TEMP    WIND        PRES    WAVE
                       AIR SEA DIR/SP/G            HT
                 (UTC) (F)     (DEG/KT/KT) (MB)    (FT)
BURNS HARBOR     2340   60      20/  3/  3 1007.8F
MICHIGAN CITY    2330   57     220/  3/  3   N/A
5NW MICH CITY    2350   58 58  230/  2/  4   N/A     1

$$

INZ004-005-014>016-021>024-290100-
NORTH CENTRAL INDIANA

CITY           SKY/WX    TMP DP  RH WIND       PRES   REMARKS
GOSHEN         CLOUDY    70  56  61 W15       29.74R
6HR MIN TEMP:  68; 6HR MAX TEMP:  77; 6HR PCP:  0.08;

SOUTH BEND     SUNNY     68  58  70 NW8       29.75R
6HR MIN TEMP:  68; 6HR MAX TEMP:  75;

WARSAW +       CLOUDY    72  59  64 NW14G24   29.74R

$$

INZ006>009-017-018-025>027-290100-
NORTHEAST INDIANA

CITY           SKY/WX    TMP DP  RH WIND       PRES   REMARKS
ANGOLA *+      SUNNY     73  66  78 NW10      29.71R
AUBURN +       PTSUNNY   64  61  88 SW3       29.73R
FORT WAYNE     TSTM      64  61  90 SW10      29.73R FOG
6HR MIN TEMP:  64; 6HR MAX TEMP:  78; 6HR PCP:  0.28;

KENDALLVILLE + CLOUDY    72  62  72 NW5       29.73R

$$

INZ028-029-035-036-043>045-051>053-290100-
WEST CENTRAL INDIANA

CITY           SKY/WX    TMP DP  RH WIND       PRES   REMARKS
CRAWFORDSVL +  MOSUNNY  -17 -23  73 NW8       29.80R WCI -34
6HR MIN TEMP: -18; 6HR MAX TEMP: -12; 6HR PCP:  0.01;

GREENCASTLE +  CLOUDY    68  64  88 CALM      29.81R
LAFAYETTE      SUNNY     73  55  53 W13G24    29.77R
6HR MIN TEMP:  71; 6HR MAX TEMP:  78; 6HR PCP:  0.02;

TERRE HAUTE    CLOUDY    73  66  78 SW6       29.80R
6HR MIN TEMP:  69; 6HR MAX TEMP:  77; 6HR PCP:  0.37;


$$

INZ030>032-037>040-046>048-054>057-064-065-290100-
CENTRAL INDIANA

CITY           SKY/WX    TMP DP  RH WIND       PRES   REMARKS
CP ATTERBURY + LGT RAIN  64  61  88 SW3       29.80S
COLUMBUS       CLOUDY    68  63  83 W7        29.80R
FRANKFORT +    MOSUNNY   75  61  62 NW14G20   29.80R
6HR MIN TEMP:  70; 6HR MAX TEMP:  80; 6HR PCP:  0.18;

GREENWOOD *+   CLOUDY    65  64  96 NW6       29.82R VSB 3/4
6HR MIN TEMP:  62; 6HR MAX TEMP:  78;

INDIANAPOLIS   TSTM      65  64  97 S8        29.78R FOG
6HR MIN TEMP:  63; 6HR MAX TEMP:  77; 6HR PCP:  0.92;

-EAGLE CREEK   TSTM      67  64  90 SW5       29.78S
6HR MIN TEMP:  66; 6HR MAX TEMP:  77; 6HR PCP:  0.21;

KOKOMO +       CLOUDY    67  63  87 SW7       29.77R
6HR MIN TEMP:  67; 6HR MAX TEMP:  77; 6HR PCP:  0.06;

SHELBYVILLE    LGT RAIN  65  59  81 S3        29.79R
6HR MIN TEMP:  65; 6HR MAX TEMP:  78; 6HR PCP:  0.18;


$$

INZ033-034-041-042-049-050-058-059-290100-
EAST CENTRAL INDIANA

CITY           SKY/WX    TMP DP  RH WIND       PRES   REMARKS
MUNCIE         CLOUDY    72  63  73 SW13      29.75R
6HR MIN TEMP:  72; 6HR MAX TEMP:  79; 6HR PCP: TRACE;

RICHMOND +     CLOUDY    70  63  78 SW12      29.80R

$$

INZ060-061-067>069-081>083-085>088-290100-
SOUTHWEST INDIANA

CITY           SKY/WX    TMP DP  RH WIND       PRES   REMARKS
EVANSVILLE     MOSUNNY   76  63  64 W10       29.85R
6HR MIN TEMP:  73; 6HR MAX TEMP:  78;

HUNTINGBURG *+ PTSUNNY   73  67  81 SW9       29.84R
6HR MIN TEMP:  69; 6HR MAX TEMP:  76; 6HR PCP:  0.02;

WASHINGTON +   MOSUNNY   74  63  68 W13       29.82R
6HR MIN TEMP:  71; 6HR MAX TEMP:  78; 6HR PCP:  0.02;


$$

INZ062-063-066-070>080-084-089>092-290100-
SOUTH CENTRAL AND SOUTHEAST INDIANA

CITY           SKY/WX    TMP DP  RH WIND       PRES   REMARKS
BLOOMINGTON    PTSUNNY   73  60  63 SW6       29.80R
6HR MIN TEMP:  71; 6HR MAX TEMP:  78;

MADISON *+     CLOUDY    72  63  73 S10       29.84R
SEYMOUR +      PTCLDY    75  64  69 SW6       29.80R

$$





USA.gov is the U.S. government's official web portal to all federal, state and local government web resources and services.